CW9533 Torre Faro Messina IT current weather conditions

sailwx.info

Wind from 250

Dewpoint -8328.6° C

Last reported at 2017-May-29 02:57 UTC.
Time now 2017-May-29 03:54 UTC

Location: N 38°16' E 015°39'.
View on Google Maps.

See reports from other nearby stations

  
Tides and Currents Weather Stations Pressure Air Temp Water Temp Dewpoint Dewpoint Depression Visibility Wind Speed Wind Dir Waves Ship Positions
date/time (UTC)wind fromknots sea level pressurealtimeterstation pressurevisibilityair tempwater tempwave heightnotes
2017-May-29 02:57 250
2017-May-29 02:42 250 18.3
2017-May-29 02:27 250 18.3
2017-May-29 02:12 250 18.3
2017-May-29 01:57 250 18.3
2017-May-29 01:42 250 18.9
2017-May-29 01:27 250 18.9
2017-May-29 01:12 251
2017-May-29 00:57 250 18.9
2017-May-29 00:42 250 18.9
2017-May-29 00:27 251 18.9
2017-May-29 00:12 251 19.4
2017-May-28 23:57 251
2017-May-28 23:42 251 19.4
2017-May-28 23:27 251 19.4
2017-May-28 23:12 251 19.4
2017-May-28 22:57 251 19.4
2017-May-28 22:42 251
2017-May-28 22:27 250 20.0
2017-May-28 22:11 221 20.0
2017-May-28 21:57 221 20.0
2017-May-28 21:41 221 20.0
2017-May-28 21:26 216 20.0
2017-May-28 21:11 215
2017-May-28 20:56 062 20.0
2017-May-28 20:41 062
2017-May-28 20:26 061 19.4
2017-May-28 20:11 062 19.4
2017-May-28 19:56 022 20.0
2017-May-28 19:41 013 20.0
2017-May-28 19:26 005
2017-May-28 19:11 005 21.1
2017-May-28 18:56 005 21.7
2017-May-28 18:41 005 21.7
2017-May-28 18:26 005 21.7
2017-May-28 18:11 005
2017-May-28 17:56 360 21.7
2017-May-28 17:41 360 22.2
2017-May-28 17:26 034 22.2
2017-May-28 17:11 035 22.8
2017-May-28 16:56 025
2017-May-28 16:41 032 22.8
2017-May-28 16:26 009 0 gusting 4 22.8
2017-May-28 16:11 025 23.3
2017-May-28 15:56 015 1 gusting 5 22.8
2017-May-28 15:41 355 0 gusting 6 23.3
2017-May-28 15:26 327 2 gusting 6 23.9
2017-May-28 15:11 319 4 gusting 9
2017-May-28 14:56 291 3 gusting 9 23.9
2017-May-28 14:41 318 5 gusting 9 23.3
2017-May-28 14:26 355 6 gusting 11 23.3
2017-May-28 14:11 333 5 gusting 11 23.9
2017-May-28 13:56 009 4 gusting 8
2017-May-28 13:40 314 5 gusting 11 23.9
2017-May-28 13:25 327 4 gusting 9 24.4
2017-May-28 13:10 020 5 gusting 8 23.3
2017-May-28 12:55 338 5 gusting 8 23.3
2017-May-28 12:40 313 4 gusting 8
2017-May-28 12:26 005 5 gusting 9 23.9
2017-May-28 12:10 355 4 gusting 10 23.3
2017-May-28 11:55 333 5 gusting 9 23.9
2017-May-28 11:40 021 4 gusting 9 23.3
2017-May-28 11:25 018 5 gusting 9
2017-May-28 11:10 012 6 gusting 9 23.3
2017-May-28 10:55 327 4 gusting 9 22.8
2017-May-28 10:40 355 6 gusting 9 23.3
2017-May-28 10:25 005 4 gusting 9 23.3
2017-May-28 10:10 360 6 gusting 8
2017-May-28 09:55 334 5 gusting 8 22.8
2017-May-28 09:41 344 3 gusting 8
2017-May-28 09:25 022 3 gusting 6 22.2
2017-May-28 09:10 338 2 gusting 6 22.8
2017-May-28 08:55 319 4 gusting 6 22.8
2017-May-28 08:40 005 1 gusting 6 22.8
2017-May-28 08:25 329 3 gusting 7
2017-May-28 08:10 321 1 gusting 9 22.8
2017-May-28 07:55 355 1 gusting 7 22.2
2017-May-28 07:40 355 3 gusting 7 22.2
2017-May-28 07:25 315 3 gusting 8 22.2
2017-May-28 07:10 319 1 gusting 6
2017-May-28 06:55 323 4 gusting 8 21.7
2017-May-28 06:40 317 4 gusting 8 21.7
2017-May-28 06:25 340 4 gusting 9 21.1
2017-May-28 06:10 355 2 gusting 8 21.1
2017-May-28 05:55 325 0 gusting 7 20.6
2017-May-28 05:40 355 0 gusting 6 20.6
2017-May-28 05:24 013 20.6
2017-May-28 05:10 009 20.6
2017-May-28 04:54 360 20.0
2017-May-28 04:39 005
2017-May-28 04:25 360 18.9
2017-May-28 04:09 355 18.3
2017-May-28 03:55 355 18.3
2017-May-28 03:39 355 18.3
2017-May-28 03:24 355
2017-May-28 03:09 355 18.9
2017-May-28 02:54 343 19.4
2017-May-28 02:39 342 19.4
2017-May-28 02:24 341 19.4
2017-May-28 02:09 341
2017-May-28 01:54 341 18.9
2017-May-28 01:39 341 19.4
2017-May-28 01:24 341 19.4
2017-May-28 01:09 340 19.4
2017-May-28 00:54 334
2017-May-28 00:39 018 19.4
2017-May-28 00:24 024
2017-May-28 00:09 024 19.4
2017-May-27 23:54 024 19.4
2017-May-27 23:39 024 19.4
2017-May-27 23:24 024 20.0
2017-May-27 23:09 024
2017-May-27 22:54 024 19.4
2017-May-27 22:39 024 19.4
2017-May-27 22:24 024 19.4
2017-May-27 22:09 024 20.0
2017-May-27 21:54 024
2017-May-27 21:39 024 20.0
2017-May-27 21:24 024 20.0
2017-May-27 21:09 024
2017-May-27 20:54 024 20.6
2017-May-27 20:39 024
2017-May-27 20:24 024 20.6
2017-May-27 20:09 024 21.1
2017-May-27 19:54 024 21.1
2017-May-27 19:39 024 21.1
2017-May-27 19:23 024 21.1
2017-May-27 19:09 021 21.1
2017-May-27 18:53 022
2017-May-27 18:38 017 21.1
2017-May-27 18:24 016 21.1
2017-May-27 18:08 015 21.7
2017-May-27 17:54 014 21.7
2017-May-27 17:38 005
2017-May-27 17:23 005 0 gusting 6 22.2
2017-May-27 17:08 355 3 gusting 6 22.2
2017-May-27 16:53 327 3 gusting 7 22.8
2017-May-27 16:38 031 2 gusting 7 22.8
2017-May-27 16:23 350 4 gusting 6
2017-May-27 16:08 360 3 gusting 6 22.8
2017-May-27 15:53 325 4 gusting 6 23.3
2017-May-27 15:38 325 2 gusting 7 23.3
2017-May-27 15:23 340 3 gusting 6 23.3
2017-May-27 15:08 296 2 gusting 7 23.9
2017-May-27 14:53 318 4 gusting 8 23.3
2017-May-27 14:38 326 3 gusting 7
2017-May-27 14:23 355 3 gusting 8 23.3
2017-May-27 14:08 019 4 gusting 8 23.9
2017-May-27 13:53 318 4 gusting 9 24.4
2017-May-27 13:38 014 5 gusting 8 23.9
2017-May-27 13:23 320 3 gusting 8
2017-May-27 13:08 326 3 gusting 8 23.9
2017-May-27 12:53 302 2 gusting 9 24.4
2017-May-27 12:38 325 4 gusting 10 23.9
2017-May-27 12:23 018 3 gusting 9 23.9
2017-May-27 12:08 341 4 gusting 9
2017-May-27 11:53 346 2 gusting 7 23.9
2017-May-27 11:38 300 2 gusting 7 23.9
2017-May-27 11:23 350 3 gusting 6 23.9
2017-May-27 11:08 348 3 gusting 6 23.3
2017-May-27 10:53 011 2 gusting 6 23.9
2017-May-27 10:38 355 23.9
2017-May-27 10:23 026 2 gusting 6
2017-May-27 10:08 346 4 gusting 6 23.3
2017-May-27 09:53 355 2 gusting 7 23.3
2017-May-27 09:38 355 3 gusting 8 23.3
2017-May-27 09:23 322 4 gusting 10 23.3
2017-May-27 09:08 309 7 gusting 11
2017-May-27 08:52 360 6 gusting 12 22.8
2017-May-27 08:38 338 6 gusting 13 22.8
2017-May-27 08:22 342 6 gusting 13 22.8
2017-May-27 08:07 326 4 gusting 14 22.8
2017-May-27 07:52 296 7 gusting 13 22.8
2017-May-27 07:37 005 5 gusting 13 22.2
2017-May-27 07:22 300 7 gusting 14 22.2
2017-May-27 07:07 328 6 gusting 12 22.2
2017-May-27 06:52 308 2 gusting 12 22.2
2017-May-27 06:37 282 0 gusting 9
2017-May-27 06:22 334 0 gusting 6 20.6
2017-May-27 06:07 260 20.6
2017-May-27 05:52 241 20.6
2017-May-27 05:37 241 20.6
2017-May-27 05:22 274
2017-May-27 05:07 273 20.0
2017-May-27 04:52 273 20.0
2017-May-27 04:37 274 20.0
2017-May-27 04:22 287 19.4
2017-May-27 04:07 287
2017-May-27 03:52 287 19.4
2017-May-27 03:37 287 19.4
2017-May-27 03:22 294 19.4
2017-May-27 03:07 296 19.4